Regional Weather Roundup
Issued by NWS

Home | Current Version | Previous Version | Text Only | Print | Product List | Glossary Off
Versions: 1 2 3 4 5 6 7 8 9 10 11 12 13 14 15 16 17 18 19 20 21 22 23 24 25 26 27 28 29 30 31 32 33 34 35 36 37 38 39 40 41 42 43 44 45 46 47 48 49 50

000
ASUS45 KBOI 261210
RWRID
WEATHER ROUNDUP FOR IDAHO
NATIONAL WEATHER SERVICE BOISE ID
500 AM MST MON JAN 26 2015

NOTE: "FAIR" INDICATES FEW OR NO CLOUDS BELOW 12000 FEET
WITH NO SIGNIFICANT WEATHER AND/OR OBSTRUCTIONS TO VISIBILITY

IDZ012-014-261300-
SOUTHWEST IDAHO


CITY           SKY/WX    TMP DP  RH WIND       PRES   REMARKS
BOISE          PTCLDY    29  28  96 CALM      30.37F FOG
CALDWELL       CLOUDY    27  19  74 NE3       30.39F VSB 1/2
MOUNTAIN HOME  CLEAR     31  29  92 SE15      30.35F WCI  21
$$

IDZ016-017-261300-
SOUTHCENTRAL IDAHO


CITY           SKY/WX    TMP DP  RH WIND       PRES   REMARKS
BURLEY         FOG       30  29  96 NE15      30.37F VSB 1   WCI  19
JEROME         PTCLDY    29  25  85 E18       30.36F WCI  16
TWIN FALLS     FOG       31  28  89 E12       30.36F VSB 1/4 WCI  22
$$

IDZ019>023-261300-
SOUTHEAST IDAHO


CITY           SKY/WX    TMP DP  RH WIND       PRES   REMARKS
IDAHO FALLS    FOG       23  20  88 NE3       30.43S VSB 1/2
POCATELLO      FOG       28  28 100 NE5       30.43F VSB 1/4 WCI  23
REXBURG        FOG       19  18  95 CALM      30.43R VSB 1/2
$$

IDZ006-010-011-018-031-032-261300-
CENTRAL IDAHO MOUNTAINS


CITY           SKY/WX    TMP DP  RH WIND       PRES   REMARKS
MCCALL         FOG       24  22  91 CALM      30.33F VSB 1/4
HAILEY         CLEAR     30  27  86 N7        30.40S WCI  23
STANLEY          N/A     15  11  83 S3        30.43F
SALMON         CLOUDY    25  21  86 CALM      30.41R VSB 1/4
CHALLIS        CLEAR     24  23  96 SE6       30.38F WCI  17
$$

IDZ002-004-006-007-026-261300-
NORTHERN IDAHO


CITY           SKY/WX    TMP DP  RH WIND       PRES   REMARKS
LEWISTON       MOCLDY    51  37  58 SE12      30.11F
LOWELL           N/A     36  34  92 N3        30.28F
COEUR D`ALENE  CLOUDY    36  34  93 NE10      30.12F VSB 3/4 WCI  28
MULLAN PASS    MOCLDY    43  26  51 S8G17     30.16F
$$



USA.gov is the U.S. government's official web portal to all federal, state and local government web resources and services.